Location: Middle West Pubnico, Nova Scotia, Canada
(43.6568°N, 65.8177°W)
Time: 01:11:00
(UTC-04:00)

Tiangong - Visible Passes

Search period start: 28 January 2022 00:00
Search period end: 07 February 2022 00:00
Orbit: 381 x 387 km, 41.5° (Epoch: 27 January)

Date Brightness Start Highest point End Pass type
(mag) Time Alt. Az. Time Alt. Az. Time Alt. Az.
28 Jan 3.5 18:00:07 10° S 18:01:47 14° SSE 18:03:27 10° ESE visible
28 Jan 2.9 19:35:07 10° WSW 19:36:54 27° SW 19:36:54 27° SW visible
29 Jan 2.4 18:35:35 10° SW 18:38:25 30° SSE 18:40:02 19° ESE visible
29 Jan 4.4 20:11:52 10° WSW 20:12:14 13° WSW 20:12:14 13° WSW visible
30 Jan 1.4 19:12:06 10° WSW 19:15:12 51° S 19:15:18 51° SSE visible
31 Jan 2.0 18:12:23 10° WSW 18:15:24 41° SSE 18:18:20 10° E visible
31 Jan 3.2 19:48:55 10° W 19:50:33 27° WSW 19:50:33 27° WSW visible
01 Feb 1.4 18:49:03 10° WSW 18:52:11 57° S 18:53:33 29° ESE visible
02 Feb 1.7 19:25:52 10° W 19:28:46 49° SSW 19:28:46 49° SSW visible
03 Feb 1.5 18:25:55 10° W 18:29:03 57° S 18:31:47 13° ESE visible
03 Feb 3.9 20:02:48 10° W 20:03:59 18° WSW 20:03:59 18° WSW visible
04 Feb 2.1 19:02:44 10° W 19:05:45 39° SSW 19:07:03 25° SE visible
05 Feb 3.3 19:39:51 10° WSW 19:42:16 20° SSW 19:42:22 20° SSW visible
06 Feb 2.8 18:39:34 10° W 18:42:23 29° SSW 18:45:10 10° SE visible
